GW2476 Weather Reports


time (UTC)temp
C
wind
direction
speed
KPH
gust
KPH
rain 1hr
cm
rain 24hr
cm
rain mn
cm
humidity
%
barometer
mb
20260504070304 2 14 0.0 1.6 0.00 0.00 0.00 95 1012.9
20260504060224 2 41 1.6 1.6 0.00 0.00 0.00 96 1012.9
20260504050652 3 21 0.0 1.6 0.00 0.00 0.00 94 1013.0
20260504050149 3 345 1.6 1.6 0.00 0.00 0.00 94 1012.9
20260504045646 3 24 0.0 1.6 0.00 0.00 0.00 94 1013.1
20260504045146 3 42 0.0 3.2 0.00 0.00 0.00 93 1013.0
20260504044644 3 39 0.0 1.6 0.00 0.00 0.00 93 1012.9
20260504044141 3 36 0.0 1.6 0.00 0.00 0.00 93 1012.9
20260504043638 3 36 0.0 1.6 0.00 0.00 0.00 93 1013.0
20260504043135 3 40 0.0 1.6 0.00 0.00 0.00 92 1012.8
20260504042632 3 38 0.0 1.6 0.00 0.00 0.00 92 1013.0
20260504042129 3 14 0.0 1.6 0.00 0.00 0.00 92 1013.1
20260504041625 3 32 1.6 4.8 0.00 0.00 0.00 91 1012.9
20260504041121 4 26 0.0 1.6 0.00 0.00 0.00 91 1012.9
20260504040619 3 35 0.0 1.6 0.00 0.00 0.00 90 1012.9
20260504040115 4 64 0.0 1.6 0.00 0.00 0.00 91 1012.6
20260504035612 3 23 0.0 1.6 0.00 0.00 0.00 91 1012.8
20260504035108 3 19 1.6 1.6 0.00 0.00 0.00 90 1012.7
20260504034606 4 46 1.6 1.6 0.00 0.00 0.00 90 1012.8
20260504034103 4 29 0.0 1.6 0.00 0.00 0.00 90 1012.6
20260504033601 4 16 0.0 1.6 0.00 0.00 0.00 90 1012.8
20260504033058 4 35 0.0 1.6 0.00 0.00 0.00 90 1012.8
20260504032555 5 18 0.0 1.6 0.00 0.00 0.00 90 1012.8
20260504032052 5 14 0.0 1.6 0.00 0.00 0.00 91 1012.7
20260504031549 5 3 1.6 3.2 0.00 0.00 0.00 90 1012.6
20260504031045 5 5 1.6 1.6 0.00 0.00 0.00 90 1012.8
20260504030542 5 39 0.0 3.2 0.00 0.00 0.00 89 1012.8
20260504030038 5 33 0.0 1.6 0.00 0.00 0.00 88 1012.7
20260504025536 5 31 1.6 1.6 0.00 0.00 0.00 87 1012.9
20260504025032 5 32 1.6 1.6 0.00 0.00 0.00 88 1012.8
20260504024529 5 348 1.6 3.2 0.00 0.00 0.00 85 1012.9
20260504024026 5 25 0.0 1.6 0.00 0.00 0.00 84 1013.0
20260504023523 6 25 0.0 3.2 0.00 0.00 0.00 86 1013.0
20260504023018 6 22 0.0 1.6 0.00 0.00 0.00 85 1012.9
20260504022514 6 16 1.6 1.6 0.00 0.00 0.00 84 1012.9
20260504022011 6 359 0.0 1.6 0.00 0.00 0.00 84 1012.9
20260504021509 6 25 0.0 1.6 0.00 0.00 0.00 84 1012.8
20260504021006 6 39 1.6 1.6 0.00 0.00 0.00 84 1012.8
20260504020502 6 56 1.6 3.2 0.00 0.00 0.00 84 1013.0
20260504015959 7 40 0.0 0.0 0.00 0.00 0.00 83 1012.8
20260504015455 7 49 0.0 1.6 0.00 0.00 0.00 83 1012.8
20260504014951 7 8 0.0 4.8 0.00 0.00 0.00 81 1012.6
20260504014447 7 19 0.0 1.6 0.00 0.00 0.00 81 1012.5
20260504013944 7 19 1.6 3.2 0.00 0.00 0.00 80 1012.6
20260504013443 7 37 1.6 1.6 0.00 0.00 0.00 80 1012.5
20260504012938 8 14 0.0 1.6 0.00 0.00 0.00 78 1012.5
20260504012437 8 15 0.0 1.6 0.00 0.00 0.00 77 1012.6
20260504011934 8 15 0.0 1.6 0.00 0.00 0.00 74 1012.4
20260504011431 8 32 0.0 1.6 0.00 0.00 0.00 75 1012.5
20260504010926 8 22 0.0 1.6 0.00 0.00 0.00 75 1012.5
20260504010423 8 56 0.0 0.0 0.00 0.00 0.00 73 1012.4
20260504005919 8 17 0.0 1.6 0.00 0.00 0.00 75 1012.3
20260504005415 8 16 0.0 1.6 0.00 0.00 0.00 73 1012.3
20260504004913 9 20 0.0 1.6 0.00 0.00 0.00 73 1012.4
20260504004411 9 19 0.0 0.0 0.00 0.00 0.00 72 1012.4
20260504003908 10 19 0.0 1.6 0.00 0.00 0.00 71 1012.2
20260504003404 10 8 0.0 1.6 0.00 0.00 0.00 68 1012.0
20260504002900 10 10 1.6 1.6 0.00 0.00 0.00 65 1012.0
20260504002358 11 55 1.6 1.6 0.00 0.00 0.00 63 1011.9
20260504001855 11 55 0.0 1.6 0.00 0.00 0.00 60 1011.9
20260504001353 11 78 1.6 4.8 0.00 0.00 0.00 56 1011.9
20260504000849 12 351 1.6 3.2 0.00 0.00 0.00 53 1011.8
20260504000346 12 19 1.6 3.2 0.00 0.00 0.00 53 1011.9
20260503235844 12 22 0.0 1.6 0.00 0.00 0.00 52 1012.0
20260503235341 12 23 0.0 1.6 0.00 0.00 0.00 52 1011.7
20260503234838 13 23 0.0 1.6 0.00 0.00 0.00 51 1011.8
20260503234336 13 355 0.0 1.6 0.00 0.00 0.00 47 1011.7
20260503233834 13 355 0.0 0.0 0.00 0.00 0.00 47 1011.8
20260503233329 14 353 0.0 1.6 0.00 0.00 0.00 43 1011.7
20260503232826 14 355 1.6 1.6 0.00 0.00 0.00 41 1011.7
20260503232323 14 349 1.6 8.0 0.00 0.00 0.00 43 1011.8
20260503231821 14 271 4.8 8.0 0.00 0.00 0.00 41 1011.7
20260503231318 14 321 3.2 4.8 0.00 0.00 0.00 40 1011.8
20260503230814 14 334 4.8 8.0 0.00 0.00 0.00 41 1011.6
20260503230311 14 307 3.2 4.8 0.00 0.00 0.00 43 1011.7
20260503225809 14 333 1.6 3.2 0.00 0.00 0.00 45 1011.8
20260503225305 14 355 0.0 3.2 0.00 0.00 0.00 49 1011.7
20260503224801 13 3 0.0 1.6 0.00 0.00 0.00 47 1011.6
20260503224258 14 12 0.0 1.6 0.00 0.00 0.00 45 1011.8
20260503223756 14 12 0.0 1.6 0.00 0.00 0.00 44 1011.6
20260503223253 14 31 0.0 8.0 0.00 0.00 0.00 43 1011.6
20260503222749 14 14 3.2 4.8 0.00 0.00 0.00 45 1011.7
20260503222247 14 11 0.0 4.8 0.00 0.00 0.00 44 1011.6
20260503221746 14 15 0.0 4.8 0.00 0.00 0.00 44 1011.7
20260503221243 14 57 1.6 1.6 0.00 0.00 0.00 44 1011.7
20260503220739 14 11 0.0 3.2 0.00 0.00 0.00 44 1011.8
20260503220236 14 43 1.6 4.8 0.00 0.00 0.00 45 1011.8
20260503215733 14 340 3.2 9.7 0.00 0.00 0.00 43 1011.9
20260503215230 14 45 1.6 3.2 0.00 0.00 0.00 44 1011.8
20260503214728 14 86 1.6 11.3 0.00 0.00 0.00 45 1011.9
20260503214225 14 305 4.8 8.0 0.00 0.00 0.00 44 1011.8
20260503213723 14 45 1.6 9.7 0.00 0.00 0.00 45 1011.8
20260503213220 13 18 1.6 3.2 0.00 0.00 0.00 44 1011.7
20260503212717 13 338 0.0 4.8 0.00 0.00 0.00 44 1011.8
20260503212214 15 20 8.0 11.3 0.00 0.00 0.00 43 1011.9
20260503211712 14 297 3.2 4.8 0.00 0.00 0.00 44 1011.7
20260503211208 15 25 4.8 12.9 0.00 0.00 0.00 42 1011.7
20260503210704 15 21 3.2 9.7 0.00 0.00 0.00 42 1011.7
20260503210201 14 49 3.2 9.7 0.00 0.00 0.00 45 1011.7
20260503205655 14 291 3.2 12.9 0.00 0.00 0.00 40 1011.7
20260503205152 15 333 3.2 14.5 0.00 0.00 0.00 43 1011.8
20260503204649 15 348 4.8 16.1 0.00 0.00 0.00 44 1011.9
20260503204147 14 286 4.8 11.3 0.00 0.00 0.00 45 1011.7
20260503203643 13 35 3.2 11.3 0.00 0.00 0.00 46 1011.8
20260503203141 13 42 3.2 11.3 0.00 0.00 0.00 44 1011.7
20260503202638 15 27 9.7 14.5 0.00 0.00 0.00 42 1011.9
20260503202137 14 15 4.8 9.7 0.00 0.00 0.00 40 1011.9
20260503201634 14 345 11.3 14.5 0.00 0.00 0.00 43 1011.9
20260503201131 13 315 4.8 4.8 0.00 0.00 0.00 43 1011.8
20260503200627 14 11 1.6 8.0 0.00 0.00 0.00 46 1012.0
20260503200124 15 309 3.2 16.1 0.00 0.00 0.00 44 1012.0
20260503195621 14 16 3.2 12.9 0.00 0.00 0.00 46 1012.0
20260503195118 13 324 6.4 14.5 0.00 0.00 0.00 41 1012.4
20260503194615 13 332 8.0 12.9 0.00 0.00 0.00 41 1012.1
20260503194110 13 334 8.0 14.5 0.00 0.00 0.00 40 1012.2
20260503193607 14 351 12.9 25.7 0.00 0.00 0.00 39 1012.3
20260503193102 15 25 4.8 12.9 0.00 0.00 0.00 43 1012.2
20260503192558 13 116 1.6 4.8 0.00 0.00 0.00 43 1012.3
20260503192054 13 219 6.4 11.3 0.00 0.00 0.00 40 1012.4
20260503191551 13 347 8.0 12.9 0.00 0.00 0.00 40 1012.4
20260503191048 13 15 1.6 14.5 0.00 0.00 0.00 43 1012.4
20260503190545 14 3 6.4 9.7 0.00 0.00 0.00 38 1012.4
20260503190042 13 357 8.0 12.9 0.00 0.00 0.00 40 1012.3
20260503185538 13 342 3.2 11.3 0.00 0.00 0.00 42 1012.6
20260503185033 13 291 8.0 11.3 0.00 0.00 0.00 37 1012.6
20260503184529 13 359 4.8 20.9 0.00 0.00 0.00 40 1012.8
20260503184026 13 345 1.6 12.9 0.00 0.00 0.00 42 1012.6
20260503183522 13 307 1.6 12.9 0.00 0.00 0.00 42 1012.9
20260503183019 13 274 4.8 8.0 0.00 0.00 0.00 40 1013.0
20260503182518 13 241 4.8 12.9 0.00 0.00 0.00 40 1012.8
20260503182015 13 29 1.6 4.8 0.00 0.00 0.00 43 1013.1
20260503181512 13 8 4.8 9.7 0.00 0.00 0.00 38 1013.0
20260503181008 13 58 4.8 9.7 0.00 0.00 0.00 42 1013.0
20260503180506 12 357 1.6 4.8 0.00 0.00 0.00 48 1013.0
20260503180003 13 279 4.8 4.8 0.00 0.00 0.00 39 1013.1
20260503175501 12 287 3.2 14.5 0.00 0.00 0.00 43 1013.4
20260503174957 13 39 8.0 9.7 0.00 0.00 0.00 43 1013.3
20260503174455 13 219 3.2 14.5 0.00 0.00 0.00 44 1013.4
20260503173950 13 247 3.2 8.0 0.00 0.00 0.00 42 1013.7
20260503173446 12 48 3.2 12.9 0.00 0.00 0.00 41 1013.8
20260503172943 13 345 6.4 11.3 0.00 0.00 0.00 44 1013.8
20260503172440 11 18 11.3 16.1 0.00 0.00 0.00 43 1013.8
20260503171937 11 315 1.6 8.0 0.00 0.00 0.00 44 1013.9
20260503171433 12 10 3.2 14.5 0.00 0.00 0.00 49 1014.0
20260503170931 12 45 0.0 12.9 0.00 0.00 0.00 51 1014.1
20260503170427 13 337 8.0 16.1 0.00 0.00 0.00 42 1014.3
20260503150820 9 44 6.4 9.7 0.00 0.00 0.00 46 1015.0
20260503150315 10 325 3.2 14.5 0.00 0.00 0.00 49 1015.2
20260503140240 8 359 11.3 14.5 0.00 0.00 0.00 51 1015.5
20260503131209 7 61 3.2 8.0 0.00 0.00 0.00 55 1015.4
20260503130707 7 75 1.6 4.8 0.00 0.00 0.00 59 1015.6
20260503130204 7 15 4.8 11.3 0.00 0.00 0.00 58 1015.9
20260503120130 6 344 3.2 8.0 0.00 0.00 0.00 72 1015.6
20260503110557 4 332 1.6 4.8 0.00 0.00 0.00 80 1015.3
20260503090444 3 14 0.0 1.6 0.00 0.00 0.00 81 1014.6
20260503081410 2 19 1.6 1.6 0.00 0.00 0.00 86 1014.6
20260503080908 2 23 0.0 1.6 0.00 0.00 0.00 85 1014.8
20260503080404 2 14 0.0 1.6 0.00 0.00 0.00 85 1014.5
20260503072840 3 16 1.6 3.2 0.00 0.00 0.00 82 1014.5
20260503072338 3 12 0.0 3.2 0.00 0.00 0.00 83 1014.7
20260503071834 2 9 3.2 3.2 0.00 0.00 0.00 85 1014.7
20260503071331 2 33 0.0 1.6 0.00 0.00 0.00 85 1014.5
20260503070827 2 354 3.2 4.8 0.00 0.00 0.00 86 1014.5